When you browse on this site, cookies collect data to enhance your experience and personalize the content and advertising you see.
Visit our Privacy Policy to learn more. By continuing to use the site, you agree to this use of cookies and data.
  • In United Kingdom
  • List of Countries
  • For 7 days
  • Water Temperature
  • Weather Map
  • Weather Widgets
  • user-avatar
    Login

    Hourly Weather Culfa

    Today, 20 October, Sunday

    Time Temperature Precipitation Wind Pressure Humidity
    00:00 +21°C° 0 mm 1 mps 703 mmHg 53%
    01:00 +20°C° 0 mm 1 mps 702 mmHg 56%
    02:00 +20°C° 0 mm 1 mps 702 mmHg 58%
    03:00 +18°C° 0 mm 2 mps 702 mmHg 60%
    04:00 +19°C° 0 mm 1 mps 702 mmHg 62%
    05:00 +18°C° 0 mm 1 mps 703 mmHg 64%
    06:00 +18°C° 0 mm 1 mps 703 mmHg 66%
    07:00 +19°C° 0.1 mm 1 mps 703 mmHg 61%
    08:00 +20°C° 0.1 mm 2 mps 703 mmHg 56%
    09:00 +23°C° 0 mm 1 mps 704 mmHg 50%
    10:00 +24°C° 0.2 mm 1 mps 704 mmHg 46%
    11:00 +25°C° 0.2 mm 2 mps 704 mmHg 42%
    12:00 +26°C° 0.2 mm 2 mps 704 mmHg 38%
    13:00 +26°C° 0.2 mm 2 mps 703 mmHg 37%
    14:00 +27°C° 0.2 mm 3 mps 703 mmHg 36%
    15:00 +27°C° 0.2 mm 3 mps 702 mmHg 34%
    16:00 +25°C° 0.1 mm 3 mps 703 mmHg 40%
    17:00 +24°C° 0.1 mm 3 mps 703 mmHg 45%
    18:00 +21°C° 0.1 mm 3 mps 703 mmHg 51%
    19:00 +20°C° 0.2 mm 3 mps 703 mmHg 54%
    20:00 +20°C° 0.2 mm 3 mps 703 mmHg 58%
    21:00 +19°C° 0.2 mm 3 mps 703 mmHg 62%
    22:00 +18°C° 0.2 mm 3 mps 703 mmHg 63%
    23:00 +18°C° 0.2 mm 3 mps 703 mmHg 65%

    Tomorrow, 21 October, Monday

    Time Temperature Precipitation Wind Pressure Humidity
    00:00 +18°C° 0.2 mm 3 mps 704 mmHg 66%
    01:00 +17°C° 0.1 mm 2 mps 704 mmHg 64%
    02:00 +17°C° 0.1 mm 2 mps 703 mmHg 62%
    03:00 +17°C° 0.1 mm 2 mps 703 mmHg 60%
    04:00 +16°C° 0 mm 2 mps 703 mmHg 59%
    05:00 +16°C° 0 mm 2 mps 704 mmHg 57%
    06:00 +16°C° 0 mm 2 mps 704 mmHg 56%
    07:00 +17°C° 0 mm 2 mps 704 mmHg 52%
    08:00 +18°C° 0 mm 2 mps 704 mmHg 48%
    09:00 +19°C° 0 mm 2 mps 704 mmHg 44%
    10:00 +20°C° 0 mm 2 mps 704 mmHg 42%
    11:00 +21°C° 0 mm 2 mps 704 mmHg 39%
    12:00 +23°C° 0 mm 2 mps 704 mmHg 37%
    13:00 +22°C° 0 mm 3 mps 704 mmHg 36%
    14:00 +24°C° 0 mm 3 mps 703 mmHg 35%
    15:00 +24°C° 0 mm 3 mps 703 mmHg 35%
    16:00 +22°C° 0.1 mm 3 mps 703 mmHg 36%
    17:00 +21°C° 0.1 mm 3 mps 703 mmHg 38%
    18:00 +20°C° 0.1 mm 3 mps 703 mmHg 39%
    19:00 +19°C° 0 mm 3 mps 703 mmHg 41%
    20:00 +18°C° 0 mm 3 mps 703 mmHg 43%
    21:00 +17°C° 0 mm 3 mps 703 mmHg 45%
    22:00 +17°C° 0 mm 3 mps 703 mmHg 47%
    23:00 +17°C° 0 mm 2 mps 703 mmHg 50%

    Day after tomorrow, 22 October, Tuesday

    Time Temperature Precipitation Wind Pressure Humidity
    00:00 +16°C° 0 mm 2 mps 703 mmHg 52%
    01:00 +16°C° 0 mm 2 mps 703 mmHg 54%
    02:00 +16°C° 0 mm 2 mps 702 mmHg 55%
    03:00 +16°C° 0 mm 2 mps 702 mmHg 56%
    04:00 +15°C° 0 mm 2 mps 702 mmHg 57%
    05:00 +15°C° 0 mm 2 mps 702 mmHg 57%
    06:00 +15°C° 0 mm 1 mps 702 mmHg 58%
    07:00 +16°C° 0 mm 1 mps 703 mmHg 53%
    08:00 +18°C° 0 mm 1 mps 703 mmHg 48%
    09:00 +19°C° 0 mm 1 mps 703 mmHg 42%
    10:00 +20°C° 0 mm 2 mps 703 mmHg 40%
    11:00 +21°C° 0 mm 2 mps 703 mmHg 37%
    12:00 +23°C° 0 mm 2 mps 703 mmHg 35%
    13:00 +23°C° 0 mm 2 mps 703 mmHg 35%
    14:00 +23°C° 0 mm 2 mps 702 mmHg 35%
    15:00 +23°C° 0 mm 2 mps 702 mmHg 36%
    16:00 +21°C° 0 mm 2 mps 702 mmHg 38%
    17:00 +20°C° 0 mm 2 mps 702 mmHg 41%
    18:00 +19°C° 0 mm 2 mps 702 mmHg 44%
    19:00 +19°C° 0 mm 2 mps 702 mmHg 47%
    20:00 +18°C° 0 mm 2 mps 702 mmHg 51%
    21:00 +17°C° 0 mm 2 mps 702 mmHg 54%
    22:00 +16°C° 0 mm 2 mps 702 mmHg 57%
    23:00 +16°C° 0 mm 2 mps 702 mmHg 60%

    23 October, Wednesday

    Time Temperature Precipitation Wind Pressure Humidity
    00:00 +16°C° 0 mm 2 mps 702 mmHg 63%
    01:00 +15°C° 0 mm 2 mps 702 mmHg 64%
    02:00 +15°C° 0 mm 2 mps 701 mmHg 66%
    03:00 +15°C° 0 mm 2 mps 701 mmHg 68%
    04:00 +14°C° 0 mm 2 mps 701 mmHg 70%
    05:00 +14°C° 0 mm 2 mps 701 mmHg 72%
    06:00 +14°C° 0 mm 2 mps 702 mmHg 74%
    07:00 +15°C° 0 mm 2 mps 702 mmHg 69%
    08:00 +16°C° 0 mm 2 mps 702 mmHg 64%
    09:00 +17°C° 0 mm 2 mps 703 mmHg 58%
    10:00 +19°C° 0 mm 2 mps 703 mmHg 54%
    11:00 +20°C° 0 mm 2 mps 703 mmHg 50%
    12:00 +21°C° 0 mm 2 mps 703 mmHg 46%
    13:00 +21°C° 0 mm 2 mps 702 mmHg 46%
    14:00 +21°C° 0 mm 3 mps 702 mmHg 45%
    15:00 +22°C° 0 mm 3 mps 702 mmHg 44%
    16:00 +21°C° 0 mm 3 mps 702 mmHg 48%
    17:00 +20°C° 0 mm 3 mps 702 mmHg 52%
    18:00 +19°C° 0 mm 3 mps 702 mmHg 56%
    19:00 +18°C° 0 mm 2 mps 702 mmHg 58%
    20:00 +18°C° 0 mm 2 mps 703 mmHg 60%
    21:00 +18°C° 0 mm 2 mps 703 mmHg 62%
    22:00 +17°C° 0.1 mm 2 mps 703 mmHg 65%
    23:00 +16°C° 0.1 mm 2 mps 702 mmHg 67%

    24 October, Thursday

    Time Temperature Precipitation Wind Pressure Humidity
    00:00 +16°C° 0.1 mm 2 mps 702 mmHg 70%
    01:00 +15°C° 0 mm 2 mps 702 mmHg 71%
    02:00 +15°C° 0 mm 2 mps 702 mmHg 73%
    03:00 +14°C° 0 mm 2 mps 702 mmHg 75%
    04:00 +14°C° 0 mm 2 mps 702 mmHg 76%
    05:00 +14°C° 0 mm 1 mps 702 mmHg 77%
    06:00 +14°C° 0 mm 1 mps 702 mmHg 78%
    07:00 +15°C° 0 mm 1 mps 702 mmHg 72%
    08:00 +16°C° 0 mm 1 mps 703 mmHg 66%
    09:00 +19°C° 0 mm 1 mps 703 mmHg 61%
    10:00 +19°C° 0 mm 2 mps 703 mmHg 56%
    11:00 +20°C° 0 mm 2 mps 703 mmHg 52%
    12:00 +21°C° 0 mm 2 mps 702 mmHg 48%
    13:00 +23°C° 0 mm 2 mps 702 mmHg 46%
    14:00 +23°C° 0 mm 2 mps 702 mmHg 45%
    15:00 +24°C° 0 mm 2 mps 702 mmHg 43%
    16:00 +23°C° 0.2 mm 2 mps 702 mmHg 48%
    17:00 +21°C° 0.2 mm 2 mps 702 mmHg 53%
    18:00 +20°C° 0.2 mm 2 mps 702 mmHg 58%
    19:00 +19°C° 0.3 mm 2 mps 702 mmHg 61%
    20:00 +18°C° 0.3 mm 2 mps 702 mmHg 65%
    21:00 +18°C° 0.3 mm 2 mps 702 mmHg 68%
    22:00 +17°C° 0.1 mm 2 mps 702 mmHg 70%
    23:00 +18°C° 0.1 mm 1 mps 701 mmHg 72%

    25 October, Friday

    Time Temperature Precipitation Wind Pressure Humidity
    00:00 +16°C° 0.1 mm 1 mps 701 mmHg 74%
    01:00 +16°C° 0.1 mm 1 mps 701 mmHg 76%
    02:00 +15°C° 0.1 mm 1 mps 701 mmHg 77%
    03:00 +14°C° 0.1 mm 0 mps 701 mmHg 78%
    04:00 +15°C° 0 mm 1 mps 701 mmHg 78%
    05:00 +15°C° 0 mm 1 mps 701 mmHg 79%
    06:00 +15°C° 0 mm 1 mps 701 mmHg 79%
    07:00 +16°C° 0 mm 1 mps 701 mmHg 73%
    08:00 +18°C° 0 mm 1 mps 701 mmHg 68%
    09:00 +19°C° 0 mm 1 mps 701 mmHg 63%
    10:00 +20°C° 0 mm 1 mps 701 mmHg 59%
    11:00 +21°C° 0 mm 1 mps 701 mmHg 55%
    12:00 +22°C° 0 mm 1 mps 701 mmHg 51%
    13:00 +21°C° 0.1 mm 2 mps 701 mmHg 50%
    14:00 +23°C° 0.1 mm 2 mps 701 mmHg 50%
    15:00 +23°C° 0.1 mm 2 mps 701 mmHg 49%
    16:00 +21°C° 0.3 mm 3 mps 700 mmHg 55%
    17:00 +20°C° 0.3 mm 3 mps 700 mmHg 60%
    18:00 +19°C° 0.3 mm 3 mps 700 mmHg 66%
    19:00 +18°C° 0.5 mm 3 mps 700 mmHg 69%
    20:00 +18°C° 0.5 mm 2 mps 700 mmHg 72%
    21:00 +17°C° 0.5 mm 2 mps 700 mmHg 75%
    22:00 +17°C° 0.7 mm 2 mps 700 mmHg 76%
    23:00 +17°C° 0.7 mm 2 mps 700 mmHg 77%
    Show more